NOAA 16 DEB, 41405

Orbit data source: Space-Track

NOAA 16 DEB, 41405 is space debris in SSO originally from a launch on Thu, 21 Sep 2000 UTC launched from the Air Force Western Test Range (AFWTR). Debris objects in space refer to the collection of defunct objects orbiting the Earth. Examples of debris include non-operational satellites, rocket bodies, and fragments generated from explosions, collisions, or faulty payload assembly.

Loading next visibility...
Identifier
41405, 2000-055KJ
Orbit
SSO
Country
Flag of USUS
Related business
Manufacturer
Unknown
Mission
Spacecraft
Bus & Motor
Unknown
Mass
Unknown
Launch date (UTC)
2000-09-21 (26 years ago)
Launch vehicle
Unknown
Launch site
Air Force Western Test Range (AFWTR)
Object type
Payload
Rocket body
Debris
Shape & HBR
Unknown shape, 0.1 m
Radar Cross Section
Medium (>0.1 m² and <1 m²)

Expand to show TLE details & history
Last TLE update: 12 hours ago

TLE from 12 hours ago
0 NOAA 16 DEB
1 41405U 00055KJ  26193.89579137  .00011703  00000-0  23393-2 0  9998
2 41405  98.8550 336.8865 0008927 243.4398 116.5886 14.62014301539238
Epoch: 2026-07-12T21:29Z
TLE epoch observation values (Epoch: 2026-07-12T21:29:56.374Z)
Latitude
-0.00007°
Longitude
83.61353°
Altitude
692.472 km
Speed
7.509 km/s
True Right ascension
22h 27m 32s
True Declination
0° 00' 00"
Sunlit
Object was in full shadow at epoch
Visualization orbit readout
Latitude
Unknown
Longitude
Unknown
Altitude
Unknown
Speed
Unknown
Apparent Right ascension
Unknown
Apparent Declination
Unknown
Sunlit
N/A
Visualization observer readout
Local Sidereal Time
22:18:58
Azimuth
Unknown
Elevation
Unknown
Doppler factor
Unknown
Orbital elements
Apogee altitude
690.091 km
Perigee altitude
677.483 km
Semi-major axis
7,061.924 km
Eccentricity
0.00089
Inclination
98.855°
RAAN
336.8865°
Arg. of periapsis
243.4398°
True anomaly
116.68003°
Mean anomaly
116.5886°
Eccentric anomaly
116.63432°
Mean motion
3.65728 °/min
Orbital period
98.43 mins
BSTAR
0.0023393
Loading maneuver chart data...
Computing Atmospheric mass density...
Loading historical data...
Loading historical data...
Loading historical data...
Loading historical data...
Loading historical data...
Loading historical data...
Loading historical data...

Documentation

Showing up to 5 results
|